Showing default

GHGSAT-C5, 52744

Orbit data source: Space-Track

GHGSAT-C5, 52744 is a payload satellite owned by GHG (CA) in SSO that was launched on Wed, 25 May 2022 UTC via an FALCON 9 launch vehicle from the Air Force Eastern Test Range (AFETR). Payload-class satellites include a variety of spacecraft equipped with specific instruments for various scientific and technological missions. These include communications satellites like Starlink; space stations such as the ISS; scientific satellites like the Hubble; Earth observation satellites from companies like Planet Labs, Umbra, and HawkEye 360; GPS; miniature CubeSats for education and research; and military/defense satellites.

Loading next visibility...
Identifier
52744, 2022-057N
Orbit
SSO
Last TLE update
9 hours ago
Origin
Manufacturer
UTIAS-SFL
Mission
Operational Commercial Science
Bus & Motor
NEMO-V1, Unknown motor
Mass
15 kg wet, 15 kg dry
Launch date (UTC)
2022-05-25 (3 years ago)
Launch vehicle
FALCON 9
Launch site
Air Force Eastern Test Range (AFETR)
Object type
Payload
Rocket body
Debris
Shape & HBR
Box, 0.4 m
Radar Cross Section
0.100 m², Medium (>0.1 m² and < 1m²)

Expand to show TLE details & history

TLE from 9 hours ago
0 GHGSAT-C5
1 52744U 22057N   25169.89644215  .00004881  00000-0  17928-3 0  9991
2 52744  97.6218 300.9595 0006843 332.0505  28.0365 15.28401975169942
Epoch: 2025-06-18T21:30Z
TLE epoch observation values (Epoch: 2025-06-18T21:30:52.601Z)
Latitude
-0.0001°
Longitude
70.86844°
Altitude
479.541 km
Speed
7.628 km/s
True Right ascension
20h 03m 50s
True Declination
0° 00' 00"
Sunlit
Object was in full shadow at epoch
Visualization orbit readout
Latitude
-17.44275°
Longitude
73.66346°
Altitude
482.933 km
Speed
7.626 km/s
Apparent Right ascension
23h 28m 15s
Apparent Declination
-56° 28' 56"
Sunlit
Object is in full shadow
Visualization observer readout
Local Sidereal Time
17:42:30
Azimuth
140.199° SSE
Elevation
-30.573°
Doppler factor
1
Orbital elements
Apogee altitude
482.244 km
Perigee altitude
472.862 km
Semi-major axis
6,855.69 km
Eccentricity
0.00068
Inclination
97.6218°
RAAN
300.9595°
Arg. of periapsis
332.0505°
True anomaly
Unknown
Mean anomaly
28.0365°
Eccentric anomaly
Unknown
Mean motion
3.82355 °/min
Orbital period
94.15 mins
BSTAR
0.00017928
Loading maneuver chart data...
Loading SW <> Apogee altitude chart data...
Loading historical data...
Loading historical data...
Loading historical data...
Loading historical data...
Loading historical data...
Loading historical data...
Loading historical data...

GHGSAT-C5 Visibility forecast

Observer location: undefined°, undefined°

Span
Click to sort rows by Start time (UTC) header in descending order
Start Az.
Max El. time (UTC)
Max El. Az.
Max El.
End time (UTC)
End Az.
6 mins2025-06-19 08:37:57.381Z159.321° S2025-06-19 08:40:57.381Z126.728° SE40.749°2025-06-19 08:43:57.381Z354.932° N
5 mins2025-06-19 21:39:57.381Z11.011° NNE2025-06-19 21:41:57.381Z199.467° SSW43.015°2025-06-19 21:44:57.381Z194.163° SSW
|